Regional Weather Roundup
Issued by NWS Jackson, KY

Home | Current Version | Previous Version | Graphics & Text | Print | Product List | Glossary On
Versions: 1 2 3 4 5 6 7 8 9 10 11 12 13 14 15 16 17 18 19 20 21 22 23 24 25 26 27 28 29 30 31 32 33 34 35 36 37 38 39 40 41 42 43 44 45 46 47 48 49 50
000
ASUS43 KJKL 211719
RWRJKL

EAST KENTUCKY HOURLY WEATHER ROUNDUP
NATIONAL WEATHER SERVICE JACKSON KY
100 PM EDT TUE OCT 21 2014

NOTE: "FAIR" INDICATES FEW OR NO CLOUDS BELOW 12,000 FEET WITH
NO SIGNIFICANT WEATHER AND/OR OBSTRUCTIONS TO VISIBILITY.

* THESE REPORTS ARE NOT UNDER NWS QUALITY CONTROL AND MAY NOT
  REPORT WEATHER SUCH AS PRECIPITATION AND FOG.

KYZ079-080-083-085-087-088-110-112-115-119-120-211800
...EASTERN KENTUCKY...

CITY           SKY/WX    TMP DP  RH WIND       PRES   REMARKS
JACKSON        CLOUDY    55  42  61 VRB5      30.02S
LONDON         CLOUDY    60  42  51 NW9       30.04S
SOMERSET*      CLOUDY    59  43  55 NW7       30.07S
MONTICELLO*      N/A     65  44  46 NW9       30.07
WILLIAMSBURG*  CLOUDY    59  45  58 CALM      30.04
MIDDLESBORO*   CLOUDY    61  46  57 N8G16     30.03F
HARLAN APT*    CLOUDY    57  41  54 NW12G18   30.02S
HAZARD APT*    CLOUDY    55  45  67 W5        30.02S
BLACK MTN*       N/A     46  39  76 E5          N/A
PIKEVILLE APT* CLOUDY    54  45  71 W13G18    29.99S
BIG SANDY*     CLOUDY    56  44  64 NW8G18    29.99S
MOREHEAD APT*  CLOUDY    54  41  62 NW9       30.04S
ASHLAND*       CLOUDY    55  41  58 NW7       29.98R
$$

KYZ035-036-041-042-044-050-067-078-099-211800
...CENTRAL KENTUCKY...

CITY           SKY/WX    TMP DP  RH WIND       PRES   REMARKS
MT STERLING*   CLOUDY    54  43  66 NW8       30.05F HAZE
FLEMING/MASON* CLOUDY    54  39  58 NW8       30.03S
DANVILLE*      PTSUNNY   55  43  62 N9G16     30.07S
RICHMOND*      CLOUDY    55  43  62 NW13      30.05S
LEXINGTON      CLOUDY    59  43  55 NW10      30.05S
FRANKFORT      CLOUDY    57  40  52 NW10G22   30.06S
$$

KYZ091>093-OHZ055-061-077-WVZ005-015-034-035-042-211800
...SOUTHERN OHIO/WEST VIRGINIA...

CITY           SKY/WX    TMP DP  RH WIND       PRES   REMARKS
COVINGTON      CLOUDY    55  36  48 NW21      30.04S
COLUMBUS       PTSUNNY   54  45  71 N13G22    29.98S
DAYTON         CLOUDY    51  45  79 N17       30.05R
WILMINGTON     LGT RAIN  50  41  71 NW13      30.03R
HUNTINGTON     CLOUDY    55  44  66 NW10      29.98S
CHARLESTON     RAIN      53  48  83 W13G22    29.95S
PINEVILLE*     CLOUDY    57  50  78 MISG      30.01S
BECKLEY        CLOUDY    52  44  74 NW14G22   29.94F
BLUEFIELD      CLOUDY    51  43  74 NW14G23   29.96S
$$

VAZ002-007-008-TNZ017-027-036-066-071-211800
...SOUTHWEST VIRGINIA/EAST TENNESSEE...

CITY           SKY/WX    TMP DP  RH WIND       PRES   REMARKS
WISE*          CLOUDY    52  41  66 W9G20     30.02S
JONESVILLE*    MOSUNNY   59  41  51 NW7       30.03F
ABINGDON*      CLOUDY    58  48  70 W8        29.98F
BRISTOL        PTSUNNY   60  47  61 W10       29.98F
KNOXVILLE      MOSUNNY   65  47  52 VRB5      30.02F
OAK RIDGE      MOSUNNY   66  43  43 VRB3      30.04S
CROSSVILLE     MOSUNNY   63  41  44 NW12G18   30.07R
NASHVILLE      MOSUNNY   70  48  45 NW7       30.07F
$$

...KEY TO REMARKS...
VSB - VISIBILITY IN MILES
WCI - WIND CHILL INDEX
HX  - HEAT INDEX

$$



USA.gov is the U.S. government's official web portal to all federal, state and local government web resources and services.